Theta_e
340 347 351 353 352 351 352 353 352 352 351 352 352 353 352 351 351 352 353 354 352 350 349 347 347 345 345 345 345 344 341 342 343 344 345 346 345 344 343 342 343 341 343
343 348 347 351 352 352 353 353 353 352 351 350 351 352 350 350 350 352 353 353 351 349 348 347 345 345 346 345 342 341 340 339 340 342 344 346 344 344 343 342 343 341 342
343 348 348 348 350 352 353 352 352 352 351 350 349 350 350 349 349 350 351 350 348 348 348 346 346 346 343 341 338 337 338 338 337 339 342 344 342 343 342 340 339 339 339
345 347 347 344 349 352 352 352 352 352 352 351 349 349 349 349 349 349 349 348 347 347 347 346 346 343 339 335 332 333 338 338 338 340 340 340 339 341 338 336 334 333 333
345 345 346 344 350 351 351 351 351 351 351 352 351 349 349 349 349 348 347 347 347 347 347 344 340 336 332 330 329 335 335 334 337 338 339 338 336 338 336 333 331 329 328
344 346 343 344 350 350 350 350 350 350 350 350 350 350 349 348 347 347 347 346 344 343 341 337 333 331 329 327 329 330 329 328 336 337 337 335 333 334 333 330 328 327 327
344 346 344 343 347 348 349 349 349 349 349 349 349 348 347 347 344 342 341 340 338 337 334 332 330 327 325 324 325 324 323 325 331 332 333 332 330 329 328 327 327 327 327
343 345 345 338 341 345 346 346 347 347 346 347 347 346 345 343 342 339 338 337 335 333 331 329 327 325 323 323 322 321 319 321 322 324 326 325 326 327 327 326 326 326 325
344 344 345 346 343 336 339 340 342 344 343 344 344 342 340 339 339 339 337 334 332 330 328 325 323 322 321 320 319 317 316 318 317 317 317 322 326 326 326 325 325 326 326
342 345 345 346 346 346 346 333 334 337 338 338 336 333 331 332 332 331 329 330 328 327 325 322 321 319 318 316 315 313 314 317 315 316 318 322 325 325 325 325 326 324 326
338 340 342 342 342 344 344 339 330 331 331 330 329 325 327 331 329 328 324 326 324 322 320 319 317 316 314 312 311 310 314 312 313 316 319 324 324 325 326 325 324 325 325
333 337 339 340 338 337 335 336 342 340 337 338 336 329 325 326 327 323 319 319 320 319 316 314 312 309 310 309 308 310 309 311 313 317 321 324 324 326 325 322 324 324 324
330 334 337 336 335 329 330 332 331 335 336 336 332 326 323 322 321 321 319 316 314 310 310 309 308 308 308 308 308 308 309 311 315 318 318 323 323 323 324 325 321 323 322
317 329 334 335 328 326 329 329 330 328 327 326 326 323 321 320 318 315 313 311 310 309 309 309 308 308 307 307 308 309 311 313 315 317 316 317 322 323 324 322 324 322 320
305 314 331 330 335 331 329 331 331 327 327 324 321 319 319 316 313 310 310 309 308 308 308 308 307 307 307 307 308 310 311 313 314 314 315 312 317 319 322 324 323 322 321
302 305 315 331 329 331 329 330 332 328 327 324 320 318 316 312 310 309 309 308 307 307 308 307 306 306 306 307 308 309 310 310 311 311 312 312 312 315 318 320 321 321 320
303 305 309 327 331 330 329 330 330 329 325 321 318 318 314 312 310 309 307 308 306 306 306 306 305 306 306 307 307 307 307 307 307 306 307 310 310 309 311 314 316 316 317
302 304 310 315 327 328 327 328 324 323 322 319 316 315 313 311 308 307 307 304 305 305 306 305 304 304 305 306 305 304 304 304 303 303 303 304 305 305 306 307 309 311 312
301 303 307 317 326 326 327 325 322 320 318 318 316 314 312 309 308 305 304 304 304 303 304 304 304 304 304 305 303 303 303 302 301 301 300 300 300 300 300 300 302 303 307
300 302 305 311 323 325 324 320 319 318 317 315 314 313 311 308 306 304 301 300 301 301 300 302 301 304 305 304 301 301 302 302 301 300 299 299 299 299 299 299 299 299 302
299 300 302 307 310 323 320 316 315 313 313 312 312 310 308 307 307 304 303 300 299 299 297 298 300 301 303 304 302 301 300 300 300 300 300 299 298 298 298 298 299 299 299
295 298 301 305 313 320 320 319 317 314 313 311 310 309 309 308 306 305 304 301 299 298 297 296 297 298 303 303 303 302 298 298 299 298 299 297 297 298 297 297 297 297 298
293 296 296 298 302 308 311 312 310 309 308 307 307 306 306 307 305 303 303 299 297 298 297 300 301 300 300 302 301 302 298 298 297 297 296 297 297 298 297 297 296 296 297
292 295 296 297 297 300 306 308 308 308 308 307 306 303 303 303 301 300 300 299 297 297 298 300 301 301 301 300 300 299 301 301 299 294 296 295 296 295 296 297 297 296 296
290 292 294 296 296 296 299 301 306 305 304 303 303 302 302 301 301 300 299 299 298 296 296 298 298 299 300 300 300 298 298 299 299 299 296 292 293 295 296 296 297 296 295
290 291 292 293 294 295 296 297 298 301 303 302 301 301 302 302 301 300 299 300 300 298 295 296 298 298 299 299 299 299 298 298 297 297 297 294 294 291 294 296 297 296 295
Wind_Speed
3 10 9 12 14 12 10 10 9 8 7 7 10 12 12 12 11 10 9 10 11 12 13 13 13 13 13 12 12 11 11 10 9 8 10 11 13 14 14 14 11 13 15
8 9 7 11 12 11 9 11 10 9 9 8 9 12 12 11 11 11 9 10 10 12 14 14 14 13 14 13 11 10 10 10 10 7 6 11 11 14 14 14 14 14 15
11 9 8 9 9 9 8 11 11 10 10 10 10 10 11 10 10 10 9 8 9 12 15 14 14 15 14 13 10 10 10 10 9 6 2 9 10 15 16 14 14 14 14
10 11 10 8 8 9 9 11 11 11 11 11 11 10 11 10 10 9 9 8 9 12 12 14 16 15 13 11 11 11 11 11 7 2 4 8 11 15 13 13 13 13 12
11 7 10 10 10 9 9 10 11 11 11 11 12 12 12 12 12 11 11 11 14 16 16 16 16 14 12 11 11 11 12 10 4 3 7 10 7 12 12 12 11 13 13
10 9 10 10 12 10 9 10 11 11 11 11 12 12 14 15 16 16 16 16 16 16 16 15 15 13 12 12 12 12 11 7 2 7 8 10 9 11 11 11 12 13 13
8 8 6 6 11 10 9 9 11 12 11 12 13 13 15 17 17 16 15 15 14 15 15 14 14 14 13 13 13 13 12 9 7 7 7 9 9 11 11 12 12 13 13
7 6 8 7 8 9 9 9 11 12 12 12 15 16 17 17 15 16 15 14 14 14 14 14 14 13 13 14 14 13 11 5 7 8 7 8 9 11 11 12 12 13 13
4 6 7 8 9 7 7 8 9 11 10 14 18 17 16 16 13 14 13 14 14 13 13 13 14 14 13 13 13 13 11 8 8 6 6 6 8 11 11 11 11 13 14
5 7 9 8 8 9 9 7 8 8 13 15 15 14 14 15 14 13 12 12 14 14 14 13 13 13 13 13 12 11 9 5 8 6 6 6 8 10 11 12 14 12 14
4 6 8 8 8 8 9 8 6 10 12 14 15 15 12 8 11 11 11 12 14 14 13 13 13 14 14 13 12 9 3 5 6 5 6 4 8 10 12 13 13 13 15
6 6 7 0 5 8 5 5 5 7 8 10 11 12 7 7 7 10 11 13 12 13 13 12 12 10 4 4 5 4 5 5 5 6 6 6 10 12 12 10 14 14 14
9 8 2 5 9 9 5 2 2 3 2 4 10 11 8 8 7 6 7 6 6 5 5 6 5 4 6 4 5 5 6 5 4 6 10 13 12 11 11 12 11 15 14
11 8 4 4 6 7 8 5 3 3 4 3 4 10 7 4 6 6 4 5 4 3 6 5 4 6 7 7 7 7 7 5 5 5 10 14 12 12 11 11 14 15 12
11 11 5 2 6 6 6 6 4 5 5 5 3 5 6 6 5 5 5 4 4 4 5 6 5 5 6 6 7 7 8 8 7 5 6 16 13 13 13 12 14 13 14
12 12 11 4 6 6 6 7 7 6 5 7 5 3 7 6 5 4 5 5 4 3 3 5 6 5 5 6 7 7 8 7 7 7 6 8 15 16 14 14 14 14 13
13 13 11 8 5 7 7 6 4 6 7 7 6 5 6 7 5 4 4 4 5 5 5 5 7 5 6 6 9 7 7 8 7 7 5 5 7 17 17 16 13 13 13
15 14 13 9 6 5 5 4 3 4 3 4 7 6 7 7 8 5 3 3 5 5 4 4 5 5 5 5 7 6 6 7 7 7 6 5 5 5 11 15 15 14 12
15 15 14 11 4 6 3 3 5 6 4 4 5 5 8 9 10 8 3 4 4 5 4 5 4 4 5 6 7 6 5 5 6 6 7 7 7 5 5 9 11 12 12
13 13 13 11 1 5 5 4 3 3 4 4 4 4 8 7 7 7 8 6 2 2 5 4 3 4 5 6 7 6 5 4 4 5 6 5 6 6 5 5 3 7 11
14 15 14 12 10 2 3 3 2 3 3 3 4 8 7 8 8 7 7 5 3 2 3 6 3 6 5 7 6 5 5 4 4 4 4 4 5 5 6 5 3 3 4
14 14 14 14 11 6 3 3 2 2 2 3 5 7 6 7 7 5 7 6 5 4 5 5 5 2 2 4 1 3 3 4 3 3 3 3 4 3 4 5 5 6 4
15 16 14 13 13 12 9 3 4 4 4 3 4 4 4 7 7 7 8 6 7 4 4 7 7 5 3 5 2 2 2 1 4 3 3 2 2 2 2 4 5 6 5
14 13 14 13 13 12 12 6 6 3 1 2 3 4 5 6 6 6 7 8 6 3 3 6 5 4 3 4 3 4 1 2 2 3 2 2 2 1 1 2 3 5 5
14 13 14 14 15 14 13 11 6 5 4 4 4 7 7 6 6 6 6 7 6 4 5 5 5 5 4 3 5 3 4 3 3 3 2 4 3 2 1 2 2 3 5
13 14 14 15 16 15 14 13 12 9 5 3 4 4 5 5 5 5 6 6 7 5 2 3 5 6 5 4 4 5 4 3 4 4 2 3 4 4 3 1 1 3 4
Wind_Direction
188 164 176 172 157 152 156 158 147 135 132 122 121 133 139 139 138 137 140 149 142 136 123 119 113 107 100 92 81 72 68 63 71 85 72 85 84 75 62 44 28 52 48
144 170 162 147 148 150 165 156 143 141 144 136 125 129 132 136 139 141 141 142 142 135 126 121 116 111 97 84 80 76 70 63 68 84 101 101 82 79 71 63 49 58 54
153 160 165 141 150 149 155 151 148 150 151 145 137 131 133 141 145 141 143 144 146 138 130 126 118 99 90 83 82 77 72 67 71 82 275 83 76 68 63 57 56 52 50
158 161 158 154 156 145 150 156 154 155 159 149 142 138 137 138 138 137 126 116 119 126 118 112 96 88 87 87 81 77 74 71 70 193 89 74 70 67 61 57 52 44 37
157 175 159 156 150 155 158 163 160 159 159 150 141 140 136 131 123 118 112 111 108 107 101 96 93 91 90 85 82 82 78 74 71 112 75 70 59 61 54 45 49 49 43
173 184 174 155 158 165 164 166 167 162 160 145 140 136 128 119 113 108 105 103 102 104 97 91 91 94 88 86 83 81 76 65 57 77 89 79 59 54 51 50 52 53 50
188 181 157 173 165 168 172 169 167 165 159 146 137 130 122 118 111 106 103 102 98 91 97 101 100 96 93 91 87 80 73 46 78 75 72 64 57 52 51 52 55 58 57
182 194 185 183 166 170 177 175 161 162 160 146 132 122 118 108 109 109 111 106 103 109 107 103 99 96 93 90 87 82 72 40 81 75 67 64 50 56 59 59 60 59 60
175 202 206 203 185 174 182 178 169 164 158 128 121 120 115 110 110 105 107 117 117 113 106 100 96 92 89 88 86 82 73 40 81 70 65 61 56 64 65 65 66 66 62
197 210 214 209 199 192 194 190 183 141 124 121 115 107 97 94 101 101 109 115 114 114 108 101 97 95 92 87 84 82 86 73 78 78 65 64 72 72 75 70 61 59 62
263 242 241 222 225 213 199 199 194 136 125 119 114 105 102 119 117 136 92 111 114 110 106 104 100 97 94 83 78 74 38 71 77 70 72 22 75 81 73 74 70 65 68
313 298 270 27 76 35 15 11 215 155 163 143 139 116 114 112 120 111 87 81 89 100 101 98 97 100 98 94 97 86 72 79 76 75 72 350 73 77 77 72 81 71 67
320 311 18 118 113 100 352 320 2 308 207 162 141 115 113 119 138 130 128 123 119 104 112 112 106 73 85 88 81 81 86 82 87 86 46 32 72 71 78 82 75 78 69
331 327 11 175 145 152 162 209 203 349 12 70 114 124 125 133 150 144 139 132 134 125 120 109 95 93 87 85 84 86 84 87 83 84 60 30 58 64 70 72 73 73 63
334 331 338 223 217 203 173 168 175 183 149 84 62 127 135 144 144 142 134 129 119 128 125 116 108 104 96 89 89 91 87 84 87 82 86 34 36 50 57 59 70 70 57
335 323 321 250 233 196 195 184 173 166 156 147 165 132 162 137 132 149 134 123 113 110 110 117 112 106 103 99 91 87 87 83 78 81 79 67 48 46 49 55 56 58 55
332 320 308 297 212 209 218 196 161 178 164 157 138 164 144 140 136 122 119 131 121 114 116 118 105 109 109 102 94 85 83 80 80 77 78 79 71 51 44 42 47 52 48
336 333 321 289 243 198 195 157 124 138 131 133 134 145 149 150 122 115 124 125 132 132 132 124 115 116 108 112 106 94 85 84 80 77 73 69 67 68 55 38 39 37 43
343 338 336 318 253 175 147 148 139 136 129 136 141 156 160 147 145 130 91 101 127 117 122 115 113 122 127 114 103 99 89 81 84 83 81 76 68 65 81 78 52 38 33
353 349 345 341 267 109 116 93 84 93 98 117 131 149 149 131 130 125 120 121 72 109 113 98 94 131 132 123 110 100 88 81 81 86 86 81 71 67 66 60 64 63 36
8 4 360 349 346 134 118 113 116 119 123 111 110 122 131 133 146 133 123 124 103 109 84 103 119 152 132 139 124 110 98 87 79 84 91 83 78 64 59 54 44 39 63
13 9 8 3 1 355 44 99 94 126 114 119 124 128 141 138 134 145 134 142 127 150 157 158 171 186 136 167 154 141 166 164 130 91 96 91 83 73 60 53 46 43 39
16 14 10 6 11 18 17 66 91 100 100 106 127 120 142 149 147 135 151 144 141 178 168 190 182 188 155 183 236 312 186 229 153 157 122 131 142 92 58 60 49 43 47
16 16 17 21 21 17 12 24 35 27 93 84 137 130 128 128 131 137 138 145 145 169 185 188 180 178 191 194 202 221 262 345 249 173 192 172 176 147 59 51 44 47 52
22 24 21 26 29 24 24 18 18 47 63 85 114 132 137 138 145 144 146 148 161 182 180 187 169 178 202 239 224 172 213 217 230 250 177 186 204 204 202 17 29 55 59
28 26 28 28 29 26 29 26 23 21 33 78 117 139 163 161 164 161 159 164 167 174 235 217 187 177 198 222 236 223 210 203 204 205 204 169 212 195 205 241 32 53 59